EW3101 Weather Reports


time (UTC)temp
C
wind
direction
speed
KPH
gust
KPH
rain 1hr
cm
rain 24hr
cm
rain mn
cm
humidity
%
barometer
mb
20260906180917 33 135 4.8 8.0 0.00 0.00 0.00 57 1016.6
20260906175917 33 135 6.4 9.7 0.00 0.00 0.00 58 1016.9
20260906174917 33 158 6.4 8.0 0.00 0.00 0.00 63 1017.1
20260906173917 32 180 6.4 8.0 0.00 0.00 0.00 64 1017.1
20260906172937 32 180 6.4 8.0 0.00 0.00 0.00 68 1017.1
20260906171917 32 135 4.8 8.0 0.00 0.00 0.00 68 1017.4
20260906170937 32 158 6.4 8.0 0.00 0.00 0.00 66 1017.5
20260906165917 31 113 3.2 4.8 0.00 0.00 0.00 70 1017.6
20260906164957 31 90 3.2 3.2 0.00 0.00 0.00 67 1017.7
20260906163937 31 90 1.6 3.2 0.00 0.00 0.00 69 1017.5
20260906162917 31 90 3.2 4.8 0.00 0.00 0.00 69 1017.5
20260906161917 31 90 4.8 6.4 0.00 0.00 0.00 68 1017.5
20260906160917 31 90 3.2 4.8 0.00 0.00 0.00 69 1017.7
20260906155917 30 90 3.2 4.8 0.00 0.00 0.00 70 1017.7
20260906154917 30 90 3.2 4.8 0.00 0.00 0.00 69 1017.6
20260906153917 30 113 3.2 4.8 0.00 0.00 0.00 68 1017.5
20260906152917 30 90 4.8 6.4 0.00 0.00 0.00 69 1017.3
20260906151917 30 113 3.2 4.8 0.00 0.00 0.00 70 1017.2
20260906150917 30 113 3.2 4.8 0.00 0.00 0.00 72 1017.2
20260906145916 30 90 3.2 6.4 0.00 0.00 0.00 73 1017.2
20260906144917 29 90 4.8 6.4 0.00 0.00 0.00 73 1017.0
20260906143917 29 90 4.8 11.3 0.00 0.00 0.00 74 1017.1
20260906142918 28 90 3.2 6.4 0.00 0.00 0.00 76 1017.2
20260906141916 27 113 4.8 6.4 0.00 0.00 0.00 78 1017.1
20260906140916 27 45 6.4 6.4 0.00 0.00 0.00 79 1016.9
20260906135957 27 68 3.2 4.8 0.00 0.00 0.00 82 1016.9
20260906134917 26 68 3.2 4.8 0.00 0.00 0.00 83 1016.9
20260906133917 26 68 4.8 6.4 0.00 0.00 0.00 85 1016.8
20260906132936 25 90 3.2 4.8 0.00 0.00 0.00 89 1016.6
20260906131916 24 135 3.2 4.8 0.00 0.00 0.00 92 1016.5
20260906130917 23 0.0 0.0 0.00 0.00 0.00 93 1016.7
20260906125916 23 0.0 0.0 0.00 0.00 0.00 93 1016.2
20260906124916 23 0.0 1.6 0.00 0.00 0.00 93 1016.1
20260906123916 23 0.0 0.0 0.00 0.00 0.00 94 1016.2
20260906122916 22 0.0 0.0 0.00 0.00 0.00 94 1016.2
20260906121937 22 0.0 0.0 0.00 0.00 0.00 93 1015.9
20260906120917 22 0.0 0.0 0.00 0.00 0.00 93 1015.9
20260906115916 22 0.0 0.0 0.00 0.00 0.00 93 1015.7
20260906114916 22 0.0 0.0 0.00 0.00 0.00 93 1015.7
20260906113936 22 0.0 0.0 0.00 0.00 0.00 93 1015.6
20260906112916 22 0.0 0.0 0.00 0.00 0.00 92 1015.7
20260906111916 22 0.0 0.0 0.00 0.00 0.00 92 1015.6
20260906110916 22 135 1.6 3.2 0.00 0.00 0.00 92 1015.4
20260906105916 22 135 1.6 1.6 0.00 0.00 0.00 92 1015.4
20260906104916 22 0.0 1.6 0.00 0.00 0.00 92 1015.4
20260906103916 22 0.0 0.0 0.00 0.00 0.00 92 1015.5
20260906102916 22 0.0 0.0 0.00 0.00 0.00 92 1015.3
20260906101936 22 0.0 1.6 0.00 0.00 0.00 92 1015.2
20260906100916 22 0.0 0.0 0.00 0.00 0.00 91 1015.2
20260906095916 22 0.0 1.6 0.00 0.00 0.00 91 1015.2
20260906094916 22 135 1.6 1.6 0.00 0.00 0.00 91 1015.3
20260906093916 22 0.0 0.0 0.00 0.00 0.00 90 1015.2
20260906092916 22 0.0 0.0 0.00 0.00 0.00 90 1015.1
20260906091936 22 135 3.2 3.2 0.00 0.00 0.00 90 1015.4
20260906090916 22 0.0 1.6 0.00 0.00 0.00 89 1015.2
20260906085916 23 0.0 0.0 0.00 0.00 0.00 89 1015.5
20260906084936 23 135 3.2 4.8 0.00 0.00 0.00 89 1015.3
20260906083916 23 0.0 0.0 0.00 0.00 0.00 88 1015.3
20260906082916 23 0.0 0.0 0.00 0.00 0.00 88 1015.2
20260906081956 23 0.0 1.6 0.00 0.00 0.00 87 1015.0
20260906080916 23 0.0 1.6 0.00 0.00 0.00 87 1015.1
20260906075936 23 135 1.6 3.2 0.00 0.00 0.00 86 1015.0
20260906074916 24 0.0 0.0 0.00 0.00 0.00 85 1014.9
20260906073916 24 135 1.6 3.2 0.00 0.00 0.00 85 1014.8
20260906072936 25 0.0 0.0 0.00 0.00 0.00 84 1014.8
20260906071916 25 0.0 0.0 0.00 0.00 0.00 83 1015.0
20260906070915 25 0.0 0.0 0.00 0.00 0.00 83 1015.1
20260906065916 25 0.0 0.0 0.00 0.00 0.00 82 1015.2
20260906064936 25 135 1.6 1.6 0.00 0.00 0.00 82 1015.3
20260906063916 25 135 3.2 3.2 0.00 0.00 0.00 80 1015.3
20260906062916 26 135 3.2 3.2 0.00 0.00 0.00 79 1015.5
20260906061936 26 0.0 1.6 0.00 0.00 0.00 78 1015.3
20260906060916 26 135 1.6 1.6 0.00 0.00 0.00 77 1015.5
20260906055916 27 135 1.6 3.2 0.00 0.00 0.00 77 1015.4
20260906054915 27 135 1.6 3.2 0.00 0.00 0.00 76 1015.3
20260906053915 27 0.0 1.6 0.00 0.00 0.00 76 1015.2
20260906052915 27 135 3.2 4.8 0.00 0.00 0.00 76 1015.2
20260906051956 27 135 3.2 4.8 0.00 0.00 0.00 76 1015.2
20260906050936 27 135 1.6 3.2 0.00 0.00 0.00 76 1015.3
20260906045936 27 158 3.2 3.2 0.00 0.00 0.00 76 1015.0
20260906044916 27 158 3.2 4.8 0.00 0.00 0.00 76 1015.1
20260906043916 27 0.0 0.0 0.00 0.00 0.00 76 1015.2
20260906042916 27 0.0 0.0 0.00 0.00 0.00 76 1015.0
20260906041916 27 158 1.6 3.2 0.00 0.00 0.00 77 1015.1
20260906040916 27 0.0 1.6 0.00 0.00 0.00 77 1015.0
20260906035916 27 0.0 0.0 0.00 0.00 0.00 78 1014.9
20260906034916 27 0.0 0.0 0.00 0.00 0.00 76 1015.0
20260906033936 27 0.0 0.0 0.00 0.00 0.00 76 1014.9
20260906032916 27 0.0 0.0 0.00 0.00 0.00 76 1014.9
20260906031916 28 0.0 0.0 0.00 0.00 0.00 76 1014.7
20260906030916 28 158 1.6 1.6 0.00 0.00 0.00 76 1014.6
20260906025916 28 0.0 1.6 0.00 0.00 0.00 76 1014.5
20260906024916 28 0.0 0.0 0.00 0.00 0.00 76 1014.4
20260906023916 28 0.0 0.0 0.00 0.00 0.00 76 1014.2
20260906022916 28 0.0 0.0 0.00 0.00 0.00 75 1014.1
20260906021916 28 0.0 0.0 0.00 0.00 0.00 76 1014.0
20260906020916 28 0.0 0.0 0.00 0.00 0.00 74 1013.8
20260906015916 29 0.0 0.0 0.00 0.00 0.00 74 1013.5
20260906014956 30 0.0 0.0 0.00 0.00 0.00 76 1013.6
20260906013916 30 0.0 0.0 0.00 0.00 0.00 74 1013.4
20260906012916 30 0.0 0.0 0.00 0.00 0.00 71 1013.4
20260906011916 30 158 1.6 1.6 0.00 0.00 0.00 68 1013.3
20260906010916 31 0.0 1.6 0.00 0.00 0.00 67 1013.1
20260906005916 31 158 1.6 1.6 0.00 0.00 0.00 66 1013.1
20260906004916 31 158 3.2 3.2 0.00 0.00 0.00 65 1013.4
20260906003916 32 158 1.6 1.6 0.00 0.00 0.00 63 1013.2
20260906002916 32 23 1.6 3.2 0.00 0.00 0.00 62 1013.4
20260906001956 33 0.0 0.0 0.00 0.00 0.00 61 1013.5
20260906000936 33 0.0 0.0 0.00 0.00 0.00 60 1013.5
20260905235935 34 0.0 0.0 0.00 0.00 0.00 59 1013.5
20260905234915 35 90 1.6 1.6 0.00 0.00 0.00 58 1013.7
20260905233935 35 90 1.6 3.2 0.00 0.00 0.00 57 1013.7
20260905232915 35 90 1.6 3.2 0.00 0.00 0.00 56 1013.5
20260905231916 35 113 3.2 3.2 0.00 0.00 0.00 55 1013.4
20260905230915 34 113 3.2 4.8 0.00 0.00 0.00 60 1013.6
20260905225915 33 113 1.6 3.2 0.00 0.00 0.00 63 1013.6
20260905224936 33 113 1.6 3.2 0.00 0.00 0.00 60 1013.6
20260905223915 33 113 3.2 3.2 0.00 0.00 0.00 62 1013.6
20260905222915 34 113 1.6 3.2 0.00 0.00 0.00 61 1013.7
20260905221916 34 113 3.2 4.8 0.00 0.00 0.00 57 1013.7
20260905220915 35 135 1.6 4.8 0.00 0.00 0.00 55 1013.8
20260905215916 35 135 3.2 4.8 0.00 0.00 0.00 54 1013.6
20260905214916 35 90 3.2 6.4 0.00 0.00 0.00 58 1013.8
20260905213915 35 90 3.2 6.4 0.00 0.00 0.00 54 1013.8
20260905212935 35 90 4.8 6.4 0.00 0.00 0.00 52 1014.1
20260905211915 35 90 4.8 6.4 0.00 0.00 0.00 51 1014.2
20260905210915 35 90 4.8 6.4 0.00 0.00 0.00 48 1014.3
20260905205915 36 68 6.4 8.0 0.00 0.00 0.00 49 1014.5
20260905204935 36 113 3.2 3.2 0.00 0.00 0.00 47 1014.6
20260905203915 37 180 6.4 9.7 0.00 0.00 0.00 45 1014.8
20260905202938 37 113 4.8 6.4 0.00 0.00 0.00 44 1014.9
20260905201917 37 180 4.8 4.8 0.00 0.00 0.00 46 1015.1
20260905200917 37 180 11.3 14.5 0.00 0.00 0.00 43 1015.3
20260905195917 37 90 6.4 9.7 0.00 0.00 0.00 46 1015.4
20260905194917 37 158 6.4 8.0 0.00 0.00 0.00 45 1015.5
20260905193917 36 113 6.4 11.3 0.00 0.00 0.00 46 1015.5
20260905192917 37 135 3.2 4.8 0.00 0.00 0.00 44 1015.5
20260905191957 37 135 6.4 8.0 0.00 0.00 0.00 44 1015.6
20260905190937 36 113 3.2 6.4 0.00 0.00 0.00 46 1015.7
20260905185917 36 90 8.0 11.3 0.00 0.00 0.00 48 1015.9
20260905184917 37 135 4.8 11.3 0.00 0.00 0.00 45 1015.8
20260905183917 36 135 3.2 8.0 0.00 0.00 0.00 45 1015.7
20260905182917 36 135 12.9 17.7 0.00 0.00 0.00 48 1015.8
20260905181937 36 113 11.3 16.1 0.00 0.00 0.00 48 1015.9